ROMMA est une association bénévole à but non lucratif. Votre soutien est indispensable : ADHERER à ROMMA ou FAIRE un DON

Montélimar - (26, Drôme)

Basse vallée du Rhône (88 m)   Longitude: 04° 45' E   Latitude: 44° 32' N Station partenaire n°164
 

Détail journalier du     <<     >>

Température Precipitation Humidité Pression Vent Dir Rafale Dir. rafale Ensol.
Heure (°C) (mm) (%) (hPa) (km/h) (km/h) (min)
01:00 20.5064101700---0
02:00 19.6069101800---0
03:00 20.1063101800---0
04:00 17.8074101800---0
05:00 17.1073101800---0
06:00 16.6073101800---0
07:00 15.7075101800---0
08:00 15.0079101900---0
09:00 15.3080101900---6
10:00 17.4075101900---16
11:00 20.6063101900---54
12:00 22.60541020010S55
13:00 23.404910192---15SSE41
14:00 24.404410182---23SE57
15:00 24.804210173---23NNO60
16:00 25.704210173---18N60
17:00 25.904110172---15N60
18:00 25.404110162---15N48
19:00 24.104510162---18N0
20:00 22.2051101600---0
21:00 20.7055101706N0
22:00 19.4058101700---0
23:00 18.2062101700---0
minuit 16.4069101700---0

Graphique du 28-09-2019

 

Serveur OMMA